CFG8MT EDDH-GCLA

Flight info

Callsign CFG8MT
Flight time N/A
Altitude 32000
Route HABFU1C HABFU Y348 MAWEQ DCT LNO DCT RASCA DCT FAMEN/N0447F310 DCT AHVEC UN857 DISAK DCT ARKIP DCT ARNAV/N0453F330 DCT LMG DCT UVELI DCT OSMOB DCT VAVIX DCT BTZ DCT URUNA P181 NEA L14 ADINO DCT ELVAR DCT BEXAL UN866 KONBA
Aircraft A321/M-SDE3FGHIRWY/LB1

Departure

Time 2026-05-06 10:37
Airport Hamburg Helmut Schmidt Airport (EDDH)

Arrival

Time N/A
Airport La Palma Airport (GCLA)
Time Latitude Longitude Altitude Speed Heading
2026-05-06 09:59 53.63035 10.00344 51 ft 0 kts 122°
2026-05-06 10:23 53.63042 10.00324 49 ft 2 kts 122°
2026-05-06 10:23 53.63051 10.00301 47 ft 2 kts 122°
2026-05-06 10:23 53.63059 10.00278 50 ft 2 kts 121°
2026-05-06 10:23 53.63068 10.00255 49 ft 2 kts 126°
2026-05-06 10:24 53.63078 10.00233 44 ft 2 kts 143°
2026-05-06 10:24 53.63091 10.00217 45 ft 2 kts 150°
2026-05-06 10:24 53.63105 10.00204 50 ft 2 kts 160°
2026-05-06 10:24 53.63121 10.00197 50 ft 2 kts 168°
2026-05-06 10:25 53.63137 10.00191 49 ft 2 kts 172°
2026-05-06 10:25 53.63140 10.00190 49 ft 0 kts 176°
2026-05-06 10:27 53.63133 10.00191 48 ft 0 kts 176°
2026-05-06 10:28 53.63115 10.00192 45 ft 3 kts 176°
2026-05-06 10:28 53.63096 10.00191 50 ft 5 kts 187°
2026-05-06 10:28 53.63026 10.00136 50 ft 14 kts 211°
2026-05-06 10:28 53.62949 10.00054 48 ft 9 kts 213°
2026-05-06 10:29 53.62900 10.00040 50 ft 6 kts 178°
2026-05-06 10:29 53.62866 10.00024 50 ft 6 kts 209°
2026-05-06 10:29 53.62829 9.99987 50 ft 5 kts 212°
2026-05-06 10:29 53.62774 9.99934 48 ft 13 kts 208°
2026-05-06 10:30 53.62698 9.99864 47 ft 12 kts 208°
2026-05-06 10:30 53.62637 9.99736 50 ft 17 kts 255°
2026-05-06 10:30 53.62615 9.99552 50 ft 16 kts 259°
2026-05-06 10:30 53.62591 9.99335 50 ft 19 kts 259°
2026-05-06 10:31 53.62567 9.99128 50 ft 17 kts 259°
2026-05-06 10:31 53.62543 9.98911 50 ft 23 kts 259°
2026-05-06 10:31 53.62508 9.98603 50 ft 27 kts 259°
2026-05-06 10:31 53.62473 9.98300 50 ft 25 kts 259°
2026-05-06 10:32 53.62405 9.98043 50 ft 24 kts 233°
2026-05-06 10:32 53.62305 9.97839 50 ft 22 kts 230°
2026-05-06 10:32 53.62213 9.97652 50 ft 20 kts 231°
2026-05-06 10:32 53.62130 9.97484 50 ft 18 kts 230°
2026-05-06 10:33 53.62055 9.97333 50 ft 17 kts 230°
2026-05-06 10:33 53.61969 9.97160 50 ft 19 kts 230°
2026-05-06 10:33 53.61888 9.96997 50 ft 17 kts 230°
2026-05-06 10:33 53.61816 9.96850 50 ft 15 kts 230°
2026-05-06 10:34 53.61752 9.96721 50 ft 13 kts 230°
2026-05-06 10:34 53.61700 9.96616 50 ft 10 kts 230°
2026-05-06 10:34 53.61668 9.96521 48 ft 11 kts 260°
2026-05-06 10:34 53.61704 9.96423 50 ft 10 kts 334°
2026-05-06 10:35 53.61770 9.96421 48 ft 11 kts
2026-05-06 10:35 53.61845 9.96425 47 ft 8 kts 15°
2026-05-06 10:35 53.61870 9.96467 47 ft 0 kts 50°
2026-05-06 10:36 53.61874 9.96474 47 ft 9 kts 50°
2026-05-06 10:36 53.62103 9.96936 46 ft 91 kts 50°
2026-05-06 10:37 53.62652 9.98042 50 ft 153 kts 50°
2026-05-06 10:37 53.63398 9.99547 455 ft 171 kts 50°
2026-05-06 10:37 53.64155 10.01080 1311 ft 168 kts 50°
2026-05-06 10:37 53.64920 10.02642 1711 ft 179 kts 49°
2026-05-06 10:38 53.65763 10.04361 1868 ft 198 kts 50°
2026-05-06 10:38 53.66642 10.06159 2261 ft 202 kts 51°
2026-05-06 10:38 53.67540 10.07997 2804 ft 204 kts 51°
2026-05-06 10:38 53.68558 10.09695 3280 ft 209 kts 32°
2026-05-06 10:39 53.69971 10.10368 3760 ft 216 kts
2026-05-06 10:39 53.71425 10.09680 4121 ft 232 kts 330°
2026-05-06 10:39 53.72519 10.07546 4338 ft 251 kts 298°
2026-05-06 10:39 53.73329 10.04819 4659 ft 267 kts 298°
2026-05-06 10:40 53.74161 10.02006 5247 ft 272 kts 297°
2026-05-06 10:40 53.74760 9.98962 5933 ft 274 kts 277°
2026-05-06 10:40 53.74730 9.95744 6631 ft 274 kts 258°
2026-05-06 10:40 53.74122 9.92738 7290 ft 274 kts 247°
2026-05-06 10:41 53.73367 9.89777 7948 ft 274 kts 246°
2026-05-06 10:41 53.72606 9.86787 8629 ft 275 kts 246°
2026-05-06 10:41 53.71855 9.83834 9260 ft 276 kts 246°
2026-05-06 10:41 53.71091 9.80833 9873 ft 278 kts 246°
2026-05-06 10:42 53.70318 9.77794 10144 ft 293 kts 246°
2026-05-06 10:42 53.69483 9.74514 10279 ft 311 kts 246°
2026-05-06 10:42 53.68610 9.71090 10422 ft 329 kts 246°
2026-05-06 10:42 53.67679 9.67445 10618 ft 344 kts 246°
2026-05-06 10:43 53.66719 9.63699 11065 ft 349 kts 245°
2026-05-06 10:43 53.65475 9.60150 11592 ft 353 kts 233°
2026-05-06 10:43 53.63816 9.57124 12131 ft 357 kts 221°
2026-05-06 10:44 53.59545 9.52689 13218 ft 365 kts 210°
2026-05-06 10:44 53.57301 9.50641 13748 ft 368 kts 210°
2026-05-06 10:44 53.55038 9.48576 14234 ft 371 kts 210°
2026-05-06 10:44 53.52751 9.46486 14713 ft 373 kts 210°
2026-05-06 10:45 53.50490 9.44421 15218 ft 376 kts 210°
2026-05-06 10:45 53.48184 9.42319 15703 ft 378 kts 210°
2026-05-06 10:45 53.45860 9.40205 16181 ft 380 kts 210°
2026-05-06 10:45 53.43519 9.38078 16650 ft 382 kts 210°
2026-05-06 10:46 53.41197 9.35972 17119 ft 384 kts 210°
2026-05-06 10:46 53.38831 9.33834 17578 ft 386 kts 210°
2026-05-06 10:46 53.36477 9.31705 18047 ft 387 kts 210°
2026-05-06 10:46 53.34093 9.29557 18452 ft 390 kts 208°
2026-05-06 10:47 53.31562 9.27864 18833 ft 394 kts 198°
2026-05-06 10:47 53.28854 9.26902 19221 ft 398 kts 192°
2026-05-06 10:47 53.26104 9.26103 19612 ft 400 kts 192°
2026-05-06 10:47 53.23385 9.25307 19996 ft 402 kts 192°
2026-05-06 10:48 53.20612 9.24486 20376 ft 404 kts 192°
2026-05-06 10:48 53.17820 9.23652 20752 ft 407 kts 192°
2026-05-06 10:48 53.15027 9.22819 21114 ft 409 kts 192°
2026-05-06 10:48 53.12242 9.21987 21476 ft 411 kts 192°
2026-05-06 10:49 53.09406 9.21139 21851 ft 413 kts 192°
2026-05-06 10:49 53.06568 9.20295 22211 ft 415 kts 192°
2026-05-06 10:49 53.03746 9.19459 22570 ft 417 kts 192°
2026-05-06 10:49 53.00877 9.18614 22930 ft 419 kts 192°
2026-05-06 10:50 52.97982 9.17763 23282 ft 421 kts 192°
2026-05-06 10:50 52.95167 9.16589 23584 ft 420 kts 201°
2026-05-06 10:50 52.92483 9.14650 23889 ft 419 kts 210°
2026-05-06 10:50 52.89932 9.12385 24202 ft 420 kts 210°
2026-05-06 10:51 52.87331 9.10091 24523 ft 421 kts 210°
2026-05-06 10:51 52.84757 9.07832 24828 ft 422 kts 210°
2026-05-06 10:51 52.82173 9.05575 25148 ft 423 kts 210°
2026-05-06 10:51 52.79554 9.03295 25462 ft 424 kts 210°
2026-05-06 10:52 52.76928 9.01009 25766 ft 425 kts 210°
2026-05-06 10:52 52.74336 8.98756 26066 ft 426 kts 210°
2026-05-06 10:52 52.71701 8.96466 26347 ft 427 kts 210°
2026-05-06 10:52 52.69062 8.94172 26622 ft 428 kts 210°
2026-05-06 10:53 52.66414 8.91872 26904 ft 429 kts 210°
2026-05-06 10:53 52.63792 8.89599 27165 ft 430 kts 210°
2026-05-06 10:53 52.61125 8.87289 27447 ft 431 kts 210°
2026-05-06 10:53 52.58459 8.84978 27722 ft 432 kts 210°
2026-05-06 10:54 52.55818 8.82691 28087 ft 431 kts 210°
2026-05-06 10:54 52.53167 8.80397 28477 ft 429 kts 210°
2026-05-06 10:54 52.50514 8.78110 28878 ft 427 kts 210°
2026-05-06 10:54 52.48766 8.76607 29172 ft 426 kts 210°
2026-05-06 10:55 52.45283 8.73616 29680 ft 424 kts 210°
2026-05-06 10:55 52.42670 8.71378 30012 ft 422 kts 210°
2026-05-06 10:55 52.40086 8.69173 30322 ft 421 kts 210°
2026-05-06 10:55 52.37485 8.66956 30647 ft 419 kts 210°
2026-05-06 10:56 52.34901 8.64753 30957 ft 417 kts 210°
2026-05-06 10:56 52.32349 8.62574 31263 ft 416 kts 210°
2026-05-06 10:56 52.29808 8.60351 31579 ft 413 kts 214°
2026-05-06 10:56 52.27438 8.57714 31785 ft 410 kts 220°
2026-05-06 10:57 52.25321 8.54628 31823 ft 406 kts 227°
2026-05-06 10:57 52.21554 8.47854 31829 ft 404 kts 229°
2026-05-06 10:58 52.17776 8.41081 31826 ft 404 kts 229°
2026-05-06 10:58 52.13993 8.34319 31826 ft 404 kts 229°
2026-05-06 10:59 52.10203 8.27550 31831 ft 404 kts 229°
2026-05-06 10:59 52.06435 8.20842 31823 ft 404 kts 229°
2026-05-06 11:00 52.02652 8.14124 31828 ft 403 kts 229°
2026-05-06 11:00 51.98865 8.07422 31820 ft 403 kts 228°
2026-05-06 11:01 51.95072 8.00741 31822 ft 403 kts 228°
2026-05-06 11:01 51.91279 7.94073 31821 ft 404 kts 228°
2026-05-06 11:02 51.87463 7.87368 31824 ft 403 kts 228°
2026-05-06 11:02 51.83669 7.80710 31822 ft 403 kts 228°
2026-05-06 11:03 51.79851 7.74035 31817 ft 403 kts 228°
2026-05-06 11:03 51.76048 7.67415 31797 ft 404 kts 228°
2026-05-06 11:04 51.72212 7.60752 31801 ft 404 kts 227°
2026-05-06 11:04 51.68395 7.54134 31804 ft 404 kts 227°
2026-05-06 11:05 51.64572 7.47515 31802 ft 405 kts 227°
2026-05-06 11:05 51.60711 7.40863 31810 ft 406 kts 227°
2026-05-06 11:06 51.56844 7.34244 31807 ft 406 kts 227°
2026-05-06 11:06 51.52983 7.27622 31815 ft 407 kts 227°
2026-05-06 11:07 51.49118 7.20999 31816 ft 408 kts 227°
2026-05-06 11:07 51.45503 7.14834 31822 ft 408 kts 227°
2026-05-06 11:08 51.41618 7.08231 31822 ft 408 kts 226°
2026-05-06 11:08 51.37728 7.01629 31827 ft 409 kts 226°
2026-05-06 11:09 51.33826 6.95029 31828 ft 409 kts 226°
2026-05-06 11:09 51.29890 6.88389 31834 ft 410 kts 226°
2026-05-06 11:10 51.25970 6.81801 31831 ft 411 kts 226°
2026-05-06 11:10 51.22038 6.75187 31840 ft 412 kts 226°
2026-05-06 11:11 51.18086 6.68564 31836 ft 413 kts 226°
2026-05-06 11:11 51.14104 6.61916 31842 ft 413 kts 225°
2026-05-06 11:12 51.10135 6.55308 31845 ft 414 kts 226°
2026-05-06 11:12 51.06143 6.48681 31842 ft 414 kts 225°
2026-05-06 11:13 51.02179 6.42120 31820 ft 413 kts 225°
2026-05-06 11:13 50.98179 6.35515 31824 ft 414 kts 225°
2026-05-06 11:14 50.94214 6.28976 31822 ft 414 kts 225°
2026-05-06 11:14 50.90193 6.22359 31830 ft 415 kts 225°
2026-05-06 11:15 50.86167 6.15765 31833 ft 416 kts 225°
2026-05-06 11:15 50.82143 6.09192 31836 ft 416 kts 225°
2026-05-06 11:16 50.78116 6.02626 31837 ft 416 kts 225°
2026-05-06 11:16 50.74089 5.96078 31859 ft 417 kts 225°
2026-05-06 11:17 50.70043 5.89513 31857 ft 417 kts 224°
2026-05-06 11:17 50.65992 5.82968 31858 ft 417 kts 224°
2026-05-06 11:18 50.61944 5.76445 31864 ft 418 kts 224°
2026-05-06 11:18 50.57881 5.69848 31868 ft 418 kts 226°
2026-05-06 11:19 50.54134 5.62921 31871 ft 419 kts 229°
2026-05-06 11:19 50.50501 5.55712 31860 ft 420 kts 230°
2026-05-06 11:20 50.46850 5.48604 31855 ft 420 kts 229°
2026-05-06 11:20 50.43101 5.41511 31863 ft 420 kts 228°
2026-05-06 11:21 50.39355 5.34492 31862 ft 421 kts 228°
2026-05-06 11:21 50.35586 5.27399 31871 ft 422 kts 228°
2026-05-06 11:22 50.31846 5.20345 31871 ft 423 kts 228°
2026-05-06 11:22 50.28090 5.13293 31860 ft 422 kts 228°
2026-05-06 11:23 50.24954 5.07427 31857 ft 422 kts 227°
2026-05-06 11:23 50.21167 5.00366 31856 ft 423 kts 227°
2026-05-06 11:24 50.17391 4.93346 31854 ft 424 kts 227°
2026-05-06 11:24 50.13595 4.86324 31863 ft 425 kts 227°
2026-05-06 11:25 50.09790 4.79273 31862 ft 425 kts 227°
2026-05-06 11:25 50.05964 4.72207 31869 ft 425 kts 227°
2026-05-06 11:26 50.02156 4.65208 31866 ft 426 kts 227°
2026-05-06 11:26 49.98312 4.58171 31868 ft 426 kts 227°
2026-05-06 11:26 49.96385 4.54720 32075 ft 426 kts 226°
2026-05-06 11:27 49.94356 4.51283 31903 ft 434 kts 225°
2026-05-06 11:27 49.90160 4.44533 31849 ft 437 kts 224°
2026-05-06 11:28 49.85904 4.37760 31847 ft 439 kts 224°
2026-05-06 11:28 49.81657 4.30910 31852 ft 441 kts 225°
2026-05-06 11:29 49.77414 4.24019 31855 ft 441 kts 225°
2026-05-06 11:29 49.73180 4.17154 31864 ft 442 kts 225°
2026-05-06 11:30 49.68927 4.10303 31869 ft 443 kts 224°
2026-05-06 11:30 49.64667 4.03473 31869 ft 443 kts 224°
2026-05-06 11:31 49.60397 3.96633 31879 ft 444 kts 224°
2026-05-06 11:31 49.56111 3.89793 31878 ft 444 kts 224°
2026-05-06 11:32 49.51805 3.82953 31881 ft 444 kts 224°
2026-05-06 11:32 49.47506 3.76103 31883 ft 445 kts 224°
2026-05-06 11:33 49.43212 3.69295 31888 ft 445 kts 224°
2026-05-06 11:33 49.38888 3.62474 31891 ft 445 kts 224°
2026-05-06 11:34 49.34573 3.55687 31893 ft 446 kts 224°
2026-05-06 11:34 49.30240 3.48874 31891 ft 446 kts 224°
2026-05-06 11:35 49.25901 3.42071 31899 ft 446 kts 224°
2026-05-06 11:35 49.21543 3.35264 31904 ft 447 kts 224°
2026-05-06 11:36 49.17190 3.28480 31906 ft 447 kts 224°
2026-05-06 11:36 49.12853 3.21729 31907 ft 447 kts 224°
2026-05-06 11:37 49.08501 3.14983 31914 ft 448 kts 224°
2026-05-06 11:37 49.04118 3.08217 31907 ft 447 kts 224°
2026-05-06 11:38 48.99765 3.01505 31909 ft 448 kts 224°
2026-05-06 11:38 48.95665 2.95194 31915 ft 448 kts 224°
2026-05-06 11:39 48.91665 2.89049 31920 ft 448 kts 224°
2026-05-06 11:39 48.87261 2.82306 31926 ft 448 kts 224°
2026-05-06 11:40 48.82884 2.75578 31928 ft 448 kts 227°
2026-05-06 11:40 48.79206 2.67985 31927 ft 449 kts 234°
2026-05-06 11:41 48.75661 2.60164 31923 ft 449 kts 234°
2026-05-06 11:41 48.72128 2.52411 31923 ft 449 kts 234°
2026-05-06 11:42 48.68563 2.44612 31916 ft 450 kts 234°
2026-05-06 11:42 48.65000 2.36849 31913 ft 451 kts 234°
2026-05-06 11:43 48.61404 2.29042 31911 ft 451 kts 234°
2026-05-06 11:43 48.57157 2.22110 31914 ft 449 kts 216°
2026-05-06 11:44 48.51707 2.17708 31908 ft 446 kts 197°
2026-05-06 11:44 48.48707 2.16543 31913 ft 445 kts 191°
2026-05-06 11:44 48.42628 2.14605 31911 ft 445 kts 191°
2026-05-06 11:45 48.36598 2.12662 31921 ft 446 kts 191°
2026-05-06 11:45 48.30521 2.10769 31926 ft 445 kts 187°
2026-05-06 11:46 48.24350 2.10814 31932 ft 442 kts 171°
2026-05-06 11:46 48.18253 2.12130 31938 ft 442 kts 171°
2026-05-06 11:47 48.12172 2.12876 31945 ft 442 kts 183°
2026-05-06 11:47 48.06055 2.11761 31954 ft 442 kts 187°
2026-05-06 11:48 47.99950 2.10582 31961 ft 441 kts 187°
2026-05-06 11:48 47.93883 2.09424 31963 ft 441 kts 187°
2026-05-06 11:49 47.87778 2.08269 31962 ft 441 kts 186°
2026-05-06 11:49 47.81689 2.07116 31958 ft 441 kts 187°
2026-05-06 11:50 47.75631 2.05960 31950 ft 441 kts 187°
2026-05-06 11:50 47.69539 2.04804 31944 ft 441 kts 187°
2026-05-06 11:51 47.63467 2.03446 31935 ft 441 kts 194°
2026-05-06 11:51 47.57725 2.00378 31928 ft 442 kts 201°
2026-05-06 11:52 47.51994 1.97055 31921 ft 442 kts 201°
2026-05-06 11:52 47.46250 1.93736 31913 ft 443 kts 201°
2026-05-06 11:53 47.40503 1.90413 31912 ft 444 kts 201°
2026-05-06 11:53 47.34735 1.87091 31911 ft 445 kts 201°
2026-05-06 11:54 47.28954 1.83775 31909 ft 446 kts 201°
2026-05-06 11:54 47.23202 1.80486 31910 ft 446 kts 201°
2026-05-06 11:55 47.17401 1.77171 31915 ft 447 kts 200°
2026-05-06 11:55 47.11580 1.73886 31915 ft 447 kts 200°
2026-05-06 11:56 47.05798 1.70648 31918 ft 447 kts 200°
2026-05-06 11:56 46.99967 1.67377 31922 ft 448 kts 200°
2026-05-06 11:57 46.94136 1.64109 31923 ft 449 kts 200°
2026-05-06 11:57 46.88333 1.60870 31913 ft 448 kts 200°
2026-05-06 11:58 46.82489 1.57623 31915 ft 449 kts 200°
2026-05-06 11:58 46.76651 1.54378 31921 ft 449 kts 200°
2026-05-06 11:59 46.70795 1.51121 31915 ft 449 kts 200°
2026-05-06 11:59 46.64973 1.47899 31918 ft 450 kts 200°
2026-05-06 12:00 46.59102 1.44662 31932 ft 450 kts 200°
2026-05-06 12:00 46.53271 1.41446 31935 ft 450 kts 200°
2026-05-06 12:01 46.47419 1.38227 31933 ft 449 kts 200°
2026-05-06 12:01 46.41592 1.35033 31934 ft 449 kts 200°
2026-05-06 12:02 46.35741 1.31832 31938 ft 448 kts 200°
2026-05-06 12:02 46.29893 1.28649 31941 ft 448 kts 200°
2026-05-06 12:03 46.24082 1.25488 31930 ft 448 kts 200°
2026-05-06 12:03 46.18256 1.22314 31930 ft 447 kts 200°
2026-05-06 12:04 46.12420 1.19139 31934 ft 447 kts 200°
2026-05-06 12:04 46.06617 1.16007 31931 ft 447 kts 200°
2026-05-06 12:05 46.00774 1.12864 31924 ft 447 kts 200°
2026-05-06 12:05 45.94930 1.09718 31920 ft 448 kts 200°
2026-05-06 12:06 45.89085 1.06583 31912 ft 448 kts 200°
2026-05-06 12:06 45.83306 1.03368 31908 ft 449 kts 206°
2026-05-06 12:07 45.78124 0.98391 31906 ft 449 kts 220°
2026-05-06 12:07 45.73342 0.92636 31907 ft 449 kts 220°
2026-05-06 12:08 45.68520 0.86894 31907 ft 450 kts 220°
2026-05-06 12:08 45.63728 0.81193 31912 ft 450 kts 220°
2026-05-06 12:09 45.58914 0.75470 31913 ft 450 kts 221°
2026-05-06 12:09 45.54102 0.69742 31915 ft 450 kts 221°
2026-05-06 12:10 45.50106 0.65002 31921 ft 449 kts 221°
2026-05-06 12:10 45.45284 0.59310 31924 ft 449 kts 221°
2026-05-06 12:11 45.40490 0.53659 31926 ft 449 kts 221°
2026-05-06 12:11 45.35677 0.47991 31926 ft 448 kts 221°
2026-05-06 12:12 45.30867 0.42339 31923 ft 448 kts 221°
2026-05-06 12:12 45.26083 0.36737 31918 ft 448 kts 221°
2026-05-06 12:13 45.21271 0.31107 31910 ft 448 kts 221°
2026-05-06 12:13 45.16458 0.25494 31906 ft 448 kts 221°
2026-05-06 12:14 45.11631 0.19885 31909 ft 448 kts 221°
2026-05-06 12:14 45.06811 0.14292 31910 ft 448 kts 221°
2026-05-06 12:15 45.02010 0.08738 31912 ft 448 kts 221°
2026-05-06 12:15 44.97172 0.03148 31913 ft 448 kts 221°
2026-05-06 12:16 44.92342 -0.02428 31918 ft 448 kts 221°
2026-05-06 12:16 44.87536 -0.07961 31927 ft 448 kts 221°
2026-05-06 12:17 44.82712 -0.13499 31948 ft 448 kts 221°
2026-05-06 12:17 44.77889 -0.19025 31928 ft 447 kts 221°
2026-05-06 12:18 44.73042 -0.24569 31925 ft 448 kts 221°
2026-05-06 12:18 44.68198 -0.30090 31928 ft 448 kts 221°
2026-05-06 12:19 44.63311 -0.35545 31928 ft 449 kts 219°
2026-05-06 12:19 44.58206 -0.40545 31942 ft 450 kts 216°
2026-05-06 12:20 44.52961 -0.45385 31934 ft 451 kts 216°
2026-05-06 12:20 44.47754 -0.50291 31941 ft 450 kts 217°
2026-05-06 12:21 44.42616 -0.55231 31944 ft 450 kts 217°
2026-05-06 12:21 44.37440 -0.60208 31957 ft 451 kts 217°
2026-05-06 12:22 44.32257 -0.65156 31957 ft 451 kts 217°
2026-05-06 12:22 44.27096 -0.70049 31955 ft 450 kts 217°
2026-05-06 12:23 44.22002 -0.75139 31949 ft 450 kts 219°
2026-05-06 12:23 44.16988 -0.80364 31952 ft 450 kts 219°
2026-05-06 12:24 44.11977 -0.85549 31956 ft 450 kts 219°
2026-05-06 12:24 44.06910 -0.90700 31970 ft 450 kts 218°
2026-05-06 12:25 44.01830 -0.95829 31973 ft 450 kts 218°
2026-05-06 12:25 43.96785 -1.00923 31988 ft 450 kts 218°
2026-05-06 12:26 43.91713 -1.06041 31989 ft 450 kts 218°
2026-05-06 12:26 43.86662 -1.11132 31990 ft 450 kts 218°
2026-05-06 12:27 43.81583 -1.16231 31997 ft 450 kts 218°
2026-05-06 12:27 43.76516 -1.21313 32000 ft 450 kts 218°
2026-05-06 12:28 43.71444 -1.26388 31995 ft 449 kts 218°
2026-05-06 12:28 43.66405 -1.31420 31999 ft 449 kts 218°
2026-05-06 12:29 43.61331 -1.36471 32019 ft 449 kts 218°
2026-05-06 12:29 43.56253 -1.41518 32021 ft 449 kts 218°
2026-05-06 12:30 43.51185 -1.46553 32035 ft 449 kts 218°
2026-05-06 12:30 43.46449 -1.52011 32025 ft 444 kts 231°
2026-05-06 12:31 43.42881 -1.58851 32023 ft 441 kts 239°
2026-05-06 12:31 43.39475 -1.65883 32025 ft 441 kts 238°
2026-05-06 12:32 43.36050 -1.72895 32020 ft 441 kts 238°
2026-05-06 12:32 43.32647 -1.79858 32016 ft 440 kts 238°
2026-05-06 12:33 43.29182 -1.86788 32012 ft 440 kts 236°
2026-05-06 12:33 43.25471 -1.93512 32016 ft 441 kts 234°
2026-05-06 12:34 43.21712 -2.00120 32028 ft 442 kts 234°
2026-05-06 12:34 43.17975 -2.06803 32031 ft 441 kts 235°
2026-05-06 12:35 43.14263 -2.13525 32037 ft 441 kts 235°
2026-05-06 12:35 43.10572 -2.20174 32039 ft 441 kts 235°
2026-05-06 12:36 43.06842 -2.26864 32040 ft 441 kts 235°
2026-05-06 12:36 43.03117 -2.33530 32036 ft 441 kts 235°
2026-05-06 12:37 42.99380 -2.40196 32030 ft 441 kts 235°
2026-05-06 12:37 42.95674 -2.46806 32026 ft 440 kts 235°
2026-05-06 12:38 42.91949 -2.53440 32027 ft 440 kts 234°
2026-05-06 12:38 42.88221 -2.60064 32030 ft 439 kts 234°
2026-05-06 12:39 42.84493 -2.66643 32034 ft 438 kts 234°
2026-05-06 12:39 42.80785 -2.73187 32035 ft 437 kts 234°
2026-05-06 12:40 42.77086 -2.79704 32038 ft 436 kts 234°
2026-05-06 12:40 42.73366 -2.86231 32036 ft 435 kts 234°
2026-05-06 12:41 42.69686 -2.92779 32038 ft 434 kts 235°
2026-05-06 12:41 42.66086 -2.99307 32033 ft 433 kts 235°
2026-05-06 12:42 42.62456 -3.05856 32031 ft 432 kts 235°
2026-05-06 12:42 42.58820 -3.12366 32028 ft 432 kts 235°
2026-05-06 12:43 42.55197 -3.18809 32024 ft 430 kts 235°
2026-05-06 12:43 42.51564 -3.25267 32024 ft 429 kts 235°
2026-05-06 12:44 42.47949 -3.31709 32029 ft 428 kts 235°
2026-05-06 12:44 42.44354 -3.38099 32030 ft 427 kts 235°
2026-05-06 12:45 42.40746 -3.44492 32034 ft 426 kts 235°
2026-05-06 12:46 42.35369 -3.53974 32038 ft 424 kts 235°
2026-05-06 12:46 42.31766 -3.60310 32036 ft 423 kts 235°
2026-05-06 12:47 42.28180 -3.66609 32033 ft 422 kts 235°
2026-05-06 12:47 42.24623 -3.72859 32023 ft 422 kts 235°
2026-05-06 12:48 42.21040 -3.79134 32014 ft 421 kts 235°
2026-05-06 12:48 42.17452 -3.85396 32002 ft 421 kts 235°
2026-05-06 12:49 42.13861 -3.91638 31994 ft 421 kts 235°
2026-05-06 12:49 42.10291 -3.97841 31989 ft 421 kts 235°
2026-05-06 12:50 42.06698 -4.04079 31992 ft 421 kts 235°
2026-05-06 12:50 42.03071 -4.10282 31986 ft 422 kts 231°
2026-05-06 12:51 41.98752 -4.15622 31984 ft 425 kts 224°
2026-05-06 12:51 41.94292 -4.20858 31991 ft 425 kts 224°
2026-05-06 12:52 41.89808 -4.26092 31988 ft 425 kts 224°
2026-05-06 12:52 41.85346 -4.31283 31994 ft 425 kts 224°
2026-05-06 12:53 41.80904 -4.36461 31989 ft 425 kts 224°
2026-05-06 12:53 41.76431 -4.41669 31995 ft 425 kts 224°
2026-05-06 12:54 41.71961 -4.46867 31990 ft 425 kts 224°
2026-05-06 12:54 41.67496 -4.52051 31997 ft 424 kts 224°
2026-05-06 12:55 41.63053 -4.57192 31994 ft 424 kts 224°
2026-05-06 12:55 41.58573 -4.62356 31993 ft 424 kts 223°
2026-05-06 12:56 41.54131 -4.67468 31990 ft 424 kts 223°
2026-05-06 12:56 41.49653 -4.72621 31991 ft 424 kts 223°
2026-05-06 12:57 41.45201 -4.77734 31993 ft 424 kts 223°
2026-05-06 12:57 41.40720 -4.82875 31992 ft 424 kts 223°
2026-05-06 12:58 41.36268 -4.87968 31994 ft 424 kts 223°
2026-05-06 12:58 41.31783 -4.93078 31992 ft 424 kts 223°
2026-05-06 12:59 41.28057 -4.97316 31996 ft 424 kts 223°
2026-05-06 12:59 41.23575 -5.02412 31997 ft 423 kts 223°
2026-05-06 13:00 41.19095 -5.07507 31994 ft 423 kts 223°
2026-05-06 13:00 41.14640 -5.12554 31992 ft 423 kts 223°
2026-05-06 13:01 41.10156 -5.17620 31990 ft 422 kts 223°
2026-05-06 13:01 41.05697 -5.22646 31988 ft 422 kts 223°
2026-05-06 13:02 41.01210 -5.27692 31991 ft 422 kts 223°
2026-05-06 13:02 40.96738 -5.32719 31994 ft 421 kts 223°
2026-05-06 13:03 40.92264 -5.37742 31994 ft 421 kts 223°
2026-05-06 13:03 40.87811 -5.42729 31990 ft 421 kts 223°
2026-05-06 13:04 40.83343 -5.47727 31989 ft 421 kts 223°
2026-05-06 13:04 40.78867 -5.52721 31992 ft 421 kts 223°
2026-05-06 13:05 40.74391 -5.57704 31983 ft 421 kts 222°
2026-05-06 13:05 40.69924 -5.62664 31976 ft 421 kts 222°
2026-05-06 13:06 40.65466 -5.67620 31966 ft 421 kts 222°
2026-05-06 13:06 40.60968 -5.72606 31957 ft 421 kts 222°
2026-05-06 13:07 40.56513 -5.77534 31955 ft 421 kts 222°
2026-05-06 13:07 40.52015 -5.82497 31953 ft 421 kts 222°
2026-05-06 13:08 40.47519 -5.87444 31951 ft 420 kts 222°
2026-05-06 13:08 40.43058 -5.92347 32218 ft 420 kts 222°
2026-05-06 13:08 40.40815 -5.94815 32485 ft 420 kts 222°
2026-05-06 13:09 40.38576 -5.97275 32748 ft 419 kts 222°
2026-05-06 13:09 40.36344 -5.99725 33013 ft 418 kts 222°
2026-05-06 13:09 40.34139 -6.02145 33283 ft 417 kts 222°
2026-05-06 13:09 40.31917 -6.04583 33557 ft 416 kts 222°
2026-05-06 13:10 40.29699 -6.07011 33817 ft 415 kts 222°
2026-05-06 13:10 40.27478 -6.09433 33936 ft 415 kts 222°
2026-05-06 13:10 40.25257 -6.11853 33965 ft 414 kts 222°
2026-05-06 13:11 40.20829 -6.16677 33953 ft 414 kts 222°
2026-05-06 13:11 40.16432 -6.21462 33951 ft 413 kts 222°
2026-05-06 13:12 40.12006 -6.26279 33952 ft 413 kts 222°
2026-05-06 13:12 40.07574 -6.31086 33948 ft 413 kts 221°
2026-05-06 13:13 40.03152 -6.35877 33947 ft 413 kts 221°
2026-05-06 13:13 39.98754 -6.40629 33953 ft 413 kts 221°
2026-05-06 13:14 39.94322 -6.45412 33952 ft 413 kts 221°
2026-05-06 13:14 39.89883 -6.50193 33947 ft 413 kts 221°
2026-05-06 13:15 39.85480 -6.54930 33954 ft 413 kts 221°
2026-05-06 13:15 39.81047 -6.59687 33951 ft 413 kts 221°
2026-05-06 13:16 39.76613 -6.64433 33950 ft 413 kts 221°
2026-05-06 13:16 39.72166 -6.69187 33956 ft 412 kts 221°
2026-05-06 13:17 39.67748 -6.73905 33958 ft 413 kts 221°
2026-05-06 13:17 39.63306 -6.78636 33956 ft 412 kts 221°
2026-05-06 13:18 39.58871 -6.83364 33958 ft 412 kts 221°
2026-05-06 13:18 39.54438 -6.88068 33960 ft 418 kts 221°
2026-05-06 13:19 39.49884 -6.92893 33955 ft 426 kts 221°
2026-05-06 13:19 39.45282 -6.97763 33959 ft 427 kts 221°
2026-05-06 13:20 39.40708 -7.02600 33957 ft 427 kts 221°
2026-05-06 13:20 39.36096 -7.07476 33958 ft 427 kts 221°
2026-05-06 13:21 39.31478 -7.12333 33959 ft 428 kts 221°
2026-05-06 13:21 39.26889 -7.17154 33957 ft 428 kts 221°
2026-05-06 13:22 39.22275 -7.22016 33956 ft 427 kts 224°
2026-05-06 13:22 39.18170 -7.27552 33957 ft 426 kts 229°
2026-05-06 13:23 39.14163 -7.33122 33955 ft 426 kts 229°
2026-05-06 13:23 39.10121 -7.38724 33959 ft 427 kts 229°
2026-05-06 13:24 39.06090 -7.44297 33958 ft 427 kts 229°
2026-05-06 13:24 39.02029 -7.49899 33963 ft 427 kts 229°
2026-05-06 13:25 38.97962 -7.55502 33965 ft 428 kts 229°
2026-05-06 13:25 38.93917 -7.61064 33967 ft 428 kts 229°
2026-05-06 13:26 38.89836 -7.66665 33962 ft 428 kts 229°
2026-05-06 13:26 38.85753 -7.72252 33966 ft 429 kts 229°
2026-05-06 13:27 38.81686 -7.77811 33968 ft 429 kts 229°
2026-05-06 13:27 38.77596 -7.83400 33968 ft 430 kts 229°
2026-05-06 13:28 38.73509 -7.88969 33968 ft 430 kts 229°
2026-05-06 13:28 38.69389 -7.94567 33967 ft 431 kts 229°
2026-05-06 13:29 38.65279 -8.00131 33969 ft 432 kts 229°
2026-05-06 13:29 38.61147 -8.05726 33970 ft 432 kts 229°
2026-05-06 13:30 38.57015 -8.11324 33967 ft 432 kts 229°
2026-05-06 13:30 38.52871 -8.16922 33973 ft 433 kts 229°
2026-05-06 13:31 38.48756 -8.22475 33973 ft 433 kts 229°
2026-05-06 13:31 38.44609 -8.28063 33974 ft 434 kts 229°
2026-05-06 13:32 38.40438 -8.33658 33976 ft 435 kts 229°
2026-05-06 13:32 38.36277 -8.39224 33976 ft 435 kts 229°
2026-05-06 13:33 38.32083 -8.44836 33976 ft 436 kts 229°
2026-05-06 13:33 38.27891 -8.50437 33978 ft 436 kts 229°
2026-05-06 13:34 38.23712 -8.56006 33980 ft 437 kts 229°
2026-05-06 13:34 38.19499 -8.61606 33984 ft 438 kts 229°
2026-05-06 13:35 38.15311 -8.67173 33994 ft 438 kts 229°
2026-05-06 13:35 38.11096 -8.72773 33992 ft 439 kts 229°
2026-05-06 13:36 38.06861 -8.78376 34007 ft 439 kts 229°
2026-05-06 13:36 38.02638 -8.83952 34009 ft 440 kts 229°
2026-05-06 13:37 37.98383 -8.89555 34010 ft 440 kts 229°
2026-05-06 13:37 37.94131 -8.95155 34018 ft 440 kts 229°
2026-05-06 13:38 37.89888 -9.00740 34012 ft 441 kts 229°
2026-05-06 13:38 37.85643 -9.06309 34019 ft 441 kts 229°
2026-05-06 13:39 37.81371 -9.11892 34023 ft 441 kts 229°
2026-05-06 13:39 37.77119 -9.17453 34023 ft 441 kts 229°
2026-05-06 13:40 37.72842 -9.23034 34027 ft 441 kts 229°
2026-05-06 13:40 37.68562 -9.28608 34029 ft 442 kts 229°
2026-05-06 13:41 37.64313 -9.34148 34027 ft 441 kts 229°
2026-05-06 13:41 37.60020 -9.39724 34027 ft 441 kts 229°
2026-05-06 13:42 37.55756 -9.45250 34029 ft 441 kts 229°
2026-05-06 13:42 37.51469 -9.50796 34033 ft 441 kts 229°
2026-05-06 13:43 37.47181 -9.56336 34033 ft 441 kts 229°
2026-05-06 13:43 37.42891 -9.61853 34036 ft 441 kts 228°
2026-05-06 13:44 37.38631 -9.67329 34037 ft 440 kts 229°
2026-05-06 13:44 37.34352 -9.72842 34039 ft 440 kts 229°
2026-05-06 13:45 37.30061 -9.78346 34043 ft 440 kts 228°
2026-05-06 13:45 37.23649 -9.86548 34044 ft 439 kts 228°
2026-05-06 13:46 37.19365 -9.92020 34045 ft 439 kts 228°
2026-05-06 13:46 37.15799 -9.96559 34046 ft 439 kts 228°
2026-05-06 13:47 37.11507 -10.02016 34046 ft 438 kts 228°
2026-05-06 13:47 37.07224 -10.07453 34048 ft 438 kts 228°
2026-05-06 13:48 37.02971 -10.12855 34050 ft 437 kts 228°
2026-05-06 13:48 36.98691 -10.18285 34050 ft 437 kts 228°
2026-05-06 13:49 36.94428 -10.23671 34056 ft 437 kts 228°
2026-05-06 13:49 36.90146 -10.29077 34054 ft 436 kts 228°
2026-05-06 13:50 36.85890 -10.34434 34056 ft 436 kts 228°
2026-05-06 13:50 36.81614 -10.39819 34057 ft 435 kts 228°
2026-05-06 13:51 36.77342 -10.45180 34055 ft 435 kts 228°
2026-05-06 13:51 36.73094 -10.50499 34054 ft 434 kts 227°
2026-05-06 13:52 36.68820 -10.55840 34058 ft 434 kts 228°
2026-05-06 13:52 36.64573 -10.61142 34058 ft 434 kts 227°
2026-05-06 13:53 36.60283 -10.66489 34056 ft 434 kts 227°
2026-05-06 13:53 36.56043 -10.71774 34058 ft 433 kts 227°
2026-05-06 13:54 36.51782 -10.77085 34069 ft 433 kts 227°
2026-05-06 13:54 36.47512 -10.82386 34052 ft 433 kts 227°
2026-05-06 13:55 36.43262 -10.87641 34070 ft 433 kts 227°
2026-05-06 13:55 36.38986 -10.92928 34061 ft 432 kts 227°
2026-05-06 13:56 36.34741 -10.98171 34063 ft 432 kts 227°
2026-05-06 13:56 36.30463 -11.03453 34065 ft 432 kts 227°
2026-05-06 13:57 36.26213 -11.08690 34066 ft 432 kts 227°
2026-05-06 13:57 36.21934 -11.13946 34068 ft 432 kts 227°
2026-05-06 13:58 36.17692 -11.19142 34071 ft 431 kts 227°
2026-05-06 13:58 36.13424 -11.24371 34065 ft 431 kts 227°
2026-05-06 13:59 36.09161 -11.29595 34069 ft 431 kts 227°
2026-05-06 13:59 36.04918 -11.34772 34069 ft 430 kts 227°
2026-05-06 14:00 36.00635 -11.39979 34070 ft 430 kts 227°
2026-05-06 14:00 35.96305 -11.45088 34069 ft 432 kts 221°
2026-05-06 14:01 35.91452 -11.49414 34070 ft 433 kts 218°
2026-05-06 14:01 35.86547 -11.53733 34071 ft 433 kts 218°
2026-05-06 14:02 35.81630 -11.58043 34073 ft 433 kts 218°
2026-05-06 14:02 35.76718 -11.62337 34067 ft 432 kts 218°
2026-05-06 14:03 35.71808 -11.66625 34065 ft 432 kts 218°
2026-05-06 14:03 35.66933 -11.70891 34076 ft 432 kts 218°
2026-05-06 14:04 35.62032 -11.75178 34082 ft 432 kts 218°
2026-05-06 14:04 35.57124 -11.79449 34075 ft 432 kts 218°
2026-05-06 14:05 35.52206 -11.83712 34075 ft 432 kts 218°
2026-05-06 14:05 35.47288 -11.87981 34074 ft 432 kts 218°
2026-05-06 14:06 35.42383 -11.92239 34075 ft 432 kts 218°
2026-05-06 14:06 35.37462 -11.96504 34076 ft 433 kts 218°
2026-05-06 14:07 35.32573 -12.00717 34075 ft 433 kts 218°
2026-05-06 14:07 35.27641 -12.04971 34071 ft 433 kts 218°
2026-05-06 14:08 35.22711 -12.09220 34084 ft 433 kts 218°
2026-05-06 14:08 35.17782 -12.13460 34074 ft 433 kts 218°
2026-05-06 14:09 35.12881 -12.17663 34078 ft 433 kts 218°
2026-05-06 14:09 35.07937 -12.21900 34080 ft 433 kts 218°
2026-05-06 14:10 35.03025 -12.26109 34078 ft 433 kts 218°
2026-05-06 14:10 34.98081 -12.30343 34081 ft 433 kts 218°
2026-05-06 14:11 34.93156 -12.34551 34078 ft 434 kts 218°
2026-05-06 14:11 34.88197 -12.38769 34078 ft 434 kts 218°
2026-05-06 14:12 34.83257 -12.42962 34082 ft 435 kts 218°
2026-05-06 14:12 34.78286 -12.47180 34076 ft 435 kts 218°
2026-05-06 14:13 34.73316 -12.51402 34082 ft 435 kts 218°
2026-05-06 14:13 34.68372 -12.55600 34079 ft 436 kts 218°
2026-05-06 14:14 34.63393 -12.59817 34077 ft 436 kts 218°
2026-05-06 14:14 34.58398 -12.64039 34074 ft 436 kts 218°
2026-05-06 14:15 34.53430 -12.68216 34082 ft 436 kts 218°
2026-05-06 14:15 34.48426 -12.72430 34085 ft 437 kts 218°
2026-05-06 14:16 34.43443 -12.76626 34077 ft 437 kts 218°
2026-05-06 14:16 34.38434 -12.80840 34082 ft 437 kts 218°
2026-05-06 14:17 34.33459 -12.85008 34080 ft 438 kts 218°
2026-05-06 14:17 34.28438 -12.89203 34083 ft 438 kts 218°
2026-05-06 14:18 34.23417 -12.93413 34084 ft 438 kts 219°
2026-05-06 14:18 34.18453 -12.97611 34085 ft 438 kts 219°
2026-05-06 14:19 34.13457 -13.01828 34083 ft 438 kts 219°
2026-05-06 14:19 34.08447 -13.06038 34086 ft 439 kts 218°
2026-05-06 14:20 34.03428 -13.10247 34084 ft 439 kts 219°
2026-05-06 14:20 33.98441 -13.14441 34087 ft 439 kts 218°
2026-05-06 14:21 33.93409 -13.18661 34087 ft 440 kts 218°
2026-05-06 14:21 33.88383 -13.22873 34084 ft 441 kts 218°
2026-05-06 14:22 33.83304 -13.27114 34095 ft 446 kts 218°
2026-05-06 14:22 33.78216 -13.31353 34088 ft 447 kts 218°
2026-05-06 14:23 33.73091 -13.35623 34089 ft 448 kts 218°
2026-05-06 14:23 33.67961 -13.39890 34095 ft 448 kts 218°
2026-05-06 14:24 33.62821 -13.44163 34088 ft 448 kts 218°
2026-05-06 14:24 33.57717 -13.48391 34084 ft 449 kts 218°
2026-05-06 14:25 33.52555 -13.52654 34091 ft 449 kts 218°
2026-05-06 14:25 33.47411 -13.56906 34087 ft 449 kts 218°
2026-05-06 14:26 33.42285 -13.61141 34086 ft 450 kts 218°
2026-05-06 14:26 33.37123 -13.65399 34089 ft 450 kts 218°
2026-05-06 14:27 33.31958 -13.69651 34084 ft 451 kts 218°
2026-05-06 14:27 33.26777 -13.73903 34087 ft 451 kts 218°
2026-05-06 14:28 33.21596 -13.78154 34089 ft 451 kts 218°
2026-05-06 14:28 33.16443 -13.82372 34088 ft 452 kts 218°
2026-05-06 14:29 33.11238 -13.86620 34089 ft 452 kts 218°
2026-05-06 14:29 33.06028 -13.90844 34088 ft 453 kts 218°
2026-05-06 14:30 33.00843 -13.95043 34089 ft 453 kts 218°
2026-05-06 14:30 32.95614 -13.99271 34089 ft 453 kts 218°
2026-05-06 14:31 32.90390 -14.03494 34089 ft 454 kts 218°
2026-05-06 14:31 32.85191 -14.07685 34091 ft 454 kts 217°
2026-05-06 14:32 32.79959 -14.11902 34088 ft 454 kts 217°
2026-05-06 14:32 32.74713 -14.16123 34088 ft 455 kts 217°
2026-05-06 14:33 32.69456 -14.20350 34092 ft 455 kts 217°
2026-05-06 14:33 32.64232 -14.24549 34090 ft 455 kts 217°
2026-05-06 14:34 32.58973 -14.28760 34090 ft 456 kts 217°
2026-05-06 14:34 32.54593 -14.32252 34093 ft 456 kts 217°
2026-05-06 14:35 32.48466 -14.37145 34091 ft 457 kts 217°
2026-05-06 14:35 32.44047 -14.40672 34101 ft 457 kts 217°
2026-05-06 14:36 32.38790 -14.44873 34097 ft 458 kts 217°
2026-05-06 14:36 32.33524 -14.49069 34083 ft 458 kts 217°
2026-05-06 14:37 32.28218 -14.53279 34087 ft 459 kts 217°
2026-05-06 14:37 32.22904 -14.57487 34089 ft 459 kts 217°
2026-05-06 14:38 32.17615 -14.61675 34089 ft 460 kts 217°
2026-05-06 14:38 32.12292 -14.65884 34093 ft 461 kts 217°
2026-05-06 14:39 32.06951 -14.70103 34090 ft 461 kts 217°
2026-05-06 14:39 32.01633 -14.74300 34093 ft 462 kts 217°
2026-05-06 14:40 31.96279 -14.78512 34088 ft 463 kts 217°
2026-05-06 14:40 31.90939 -14.82716 34091 ft 464 kts 217°
2026-05-06 14:41 31.85558 -14.86931 34091 ft 464 kts 217°
2026-05-06 14:41 31.80156 -14.91159 34086 ft 465 kts 217°
2026-05-06 14:42 31.74790 -14.95375 34095 ft 465 kts 217°
2026-05-06 14:42 31.69410 -14.99586 34086 ft 466 kts 217°
2026-05-06 14:43 31.63988 -15.03816 34091 ft 467 kts 217°
2026-05-06 14:43 31.58594 -15.08021 34083 ft 467 kts 217°
2026-05-06 14:44 31.53155 -15.12249 34087 ft 471 kts 217°
2026-05-06 14:45 31.44907 -15.18670 34087 ft 475 kts 217°
2026-05-06 14:45 31.39387 -15.22958 34086 ft 476 kts 217°
2026-05-06 14:46 31.33887 -15.27214 34086 ft 477 kts 217°
2026-05-06 14:46 31.28289 -15.31446 34086 ft 479 kts 214°
2026-05-06 14:47 31.22452 -15.35268 34085 ft 481 kts 211°
2026-05-06 14:47 31.16518 -15.38872 34086 ft 482 kts 211°
2026-05-06 14:48 31.10592 -15.42544 34087 ft 482 kts 212°
2026-05-06 14:48 31.04743 -15.46271 34086 ft 482 kts 212°
2026-05-06 14:49 30.98844 -15.50045 34084 ft 483 kts 212°
2026-05-06 14:49 30.92975 -15.53791 34087 ft 483 kts 212°
2026-05-06 14:50 30.87059 -15.57535 34086 ft 484 kts 212°
2026-05-06 14:50 30.81124 -15.61285 34084 ft 485 kts 212°
2026-05-06 14:51 30.75221 -15.65014 34082 ft 486 kts 212°
2026-05-06 14:51 30.69243 -15.68776 34084 ft 486 kts 212°
2026-05-06 14:52 30.63287 -15.72528 34078 ft 487 kts 212°
2026-05-06 14:52 30.57350 -15.76270 34082 ft 488 kts 212°
2026-05-06 14:53 30.51359 -15.80033 34078 ft 489 kts 211°
2026-05-06 14:53 30.45387 -15.83765 34079 ft 489 kts 211°
2026-05-06 14:54 30.39389 -15.87521 34076 ft 490 kts 211°
2026-05-06 14:54 30.33410 -15.91264 34073 ft 490 kts 211°
2026-05-06 14:55 30.27397 -15.95011 34082 ft 491 kts 211°
2026-05-06 14:55 30.21370 -15.98760 34069 ft 492 kts 211°
2026-05-06 14:56 30.15348 -16.02514 34075 ft 492 kts 211°
2026-05-06 14:56 30.09340 -16.06256 34067 ft 493 kts 211°
2026-05-06 14:57 30.03282 -16.10016 34066 ft 494 kts 211°
2026-05-06 14:57 29.97256 -16.13758 34064 ft 495 kts 211°
2026-05-06 14:58 29.91172 -16.17533 34068 ft 495 kts 211°
2026-05-06 14:58 29.85093 -16.21298 34067 ft 495 kts 211°
2026-05-06 14:59 29.79043 -16.25033 34063 ft 496 kts 211°
2026-05-06 14:59 29.72933 -16.28803 34058 ft 496 kts 211°
2026-05-06 15:00 29.66882 -16.32528 34058 ft 496 kts 211°
2026-05-06 15:00 29.60787 -16.36281 34057 ft 496 kts 212°
2026-05-06 15:00 29.57926 -16.38445 34052 ft 485 kts 221°
2026-05-06 15:01 29.55363 -16.40858 34052 ft 469 kts 223°
2026-05-06 15:01 29.52847 -16.43237 33544 ft 467 kts 223°
2026-05-06 15:01 29.50340 -16.45603 33008 ft 464 kts 223°
2026-05-06 15:01 29.47892 -16.47910 32534 ft 460 kts 223°
2026-05-06 15:02 29.45427 -16.50229 32070 ft 455 kts 223°
2026-05-06 15:02 29.42993 -16.52520 31625 ft 451 kts 223°
2026-05-06 15:02 29.40578 -16.54789 31177 ft 446 kts 223°
2026-05-06 15:02 29.38187 -16.57031 30760 ft 442 kts 223°
2026-05-06 15:03 29.35816 -16.59257 30342 ft 437 kts 223°
2026-05-06 15:03 29.33469 -16.61461 29872 ft 433 kts 223°
2026-05-06 15:03 29.31146 -16.63645 29348 ft 429 kts 223°
2026-05-06 15:03 29.28873 -16.65782 28839 ft 426 kts 223°
2026-05-06 15:04 29.26585 -16.67929 28356 ft 423 kts 223°
2026-05-06 15:04 29.24312 -16.70059 27866 ft 420 kts 223°
2026-05-06 15:04 29.22061 -16.72171 27354 ft 417 kts 222°
2026-05-06 15:04 29.19818 -16.74273 26853 ft 414 kts 222°
2026-05-06 15:05 29.17586 -16.76361 26360 ft 412 kts 222°
2026-05-06 15:05 29.15396 -16.78408 25885 ft 409 kts 222°
2026-05-06 15:05 29.13201 -16.80462 25408 ft 406 kts 222°
2026-05-06 15:05 29.11013 -16.82505 24938 ft 404 kts 222°
2026-05-06 15:06 29.08842 -16.84531 24479 ft 402 kts 222°
2026-05-06 15:06 29.06681 -16.86548 24020 ft 399 kts 222°
2026-05-06 15:06 29.04530 -16.88553 23566 ft 397 kts 222°
2026-05-06 15:06 29.02397 -16.90541 23054 ft 394 kts 222°
2026-05-06 15:07 29.00308 -16.92488 22600 ft 390 kts 222°
2026-05-06 15:07 28.98214 -16.94439 22158 ft 386 kts 222°
2026-05-06 15:07 28.96141 -16.96372 21729 ft 382 kts 222°
2026-05-06 15:07 28.94088 -16.98281 21307 ft 378 kts 222°